DECAYED
Showing default

VICTUS NOX, 57861 (Decayed)

Orbit data source: Space-Track

VICTUS NOX, 57861 was a payload satellite owned by USSF SSC (US) in LEO that was launched on Fri, 15 Sep 2023 UTC via an FIREFLY ALPHA launch vehicle from the Air Force Western Test Range (AFWTR). Payload-class satellites include a variety of spacecraft equipped with specific instruments for various scientific and technological missions. These include communications satellites like Starlink; space stations such as the ISS; scientific satellites like the Hubble; Earth observation satellites from companies like Planet Labs, Umbra, and HawkEye 360; GPS; miniature CubeSats for education and research; and military/defense satellites.

Loading next visibility...
Identifier
57861, 2023-142A
Orbit
Decayed
Country
Flag of USUS
Related business
Manufacturer
Millenium ES
Mission
Decayed Defense Imaging
Bus & Motor
ALTAIR 27U, Unknown motor
Mass
~100 kg wet, ~100 kg dry
Launch date (UTC)
2023-09-15 (3 years ago)
Launch vehicle
FIREFLY ALPHA
Launch site
Air Force Western Test Range (AFWTR)
Object type
Payload
Rocket body
Debris
Shape & HBR
Box, 0.2 m
Radar Cross Section
0.240 m², Medium (>0.1 m² and < 1m²)

Expand to show TLE details & history
Last TLE update: 1 year ago

TLE from 1 year ago
0 VICTUS NOX
1 57861U 23142A   25028.81288265  .10545779  24723-5  23421-3 0  9992
2 57861  97.2644 234.8248 0007881 279.4605  80.5807 16.46189870 77764
Epoch: 2025-01-28T19:30Z
TLE epoch observation values (Epoch: 2025-01-28T19:30:33.060Z)
Latitude
-0.00007°
Longitude
173.8738°
Altitude
151.814 km
Speed
7.816 km/s
True Right ascension
15h 39m 17s
True Declination
0° 00' 00"
Sunlit
Object was in daylight at epoch
Visualization orbit readout
Latitude
Unknown
Longitude
Unknown
Altitude
Unknown
Speed
Unknown
Apparent Right ascension
Unknown
Apparent Declination
Unknown
Sunlit
N/A
Visualization observer readout
Local Sidereal Time
21:33:44
Azimuth
Unknown
Elevation
Unknown
Doppler factor
Unknown
Orbital elements
Apogee altitude
151.324 km
Perigee altitude
141.04 km
Semi-major axis
6,524.319 km
Eccentricity
0.00079
Inclination
97.2644°
RAAN
234.8248°
Arg. of periapsis
279.4605°
True anomaly
80.66981°
Mean anomaly
80.5807°
Eccentric anomaly
80.62525°
Mean motion
4.11851 °/min
Orbital period
87.41 mins
BSTAR
0.00023421
Loading maneuver chart data...
Computing Atmospheric mass density...
Loading historical data...
Loading historical data...
Loading historical data...
Loading historical data...
Loading historical data...
Loading historical data...
Loading historical data...
Other satellites on launch #142 in the year 2023 (2023-09-15 UTC)

Documentation

Showing up to 5 results
|